| time (UTC) | temp C | wind direction | speed KPH | gust KPH | rain 1hr cm | rain 24hr cm | rain mn cm | humidity % | barometer mb |
| 20260505093625 | 10 | 245 | 0.0 | 1.6 | 0.00 | 0.00 | 0.00 | 71 | 1011.2 |
| 20260505092704 | 10 | 245 | 0.0 | 1.6 | 0.00 | 0.00 | 0.00 | 70 | 1011.2 |
| 20260505091804 | 10 | 0 | 0.0 | 0.0 | 0.00 | 0.00 | 0.00 | 73 | 1011.2 |
| 20260505090903 | 10 | 245 | 0.0 | 1.6 | 0.00 | 0.00 | 0.00 | 72 | 1010.8 |
| 20260505090004 | 10 | 245 | 0.0 | 1.6 | 0.00 | 0.00 | 0.00 | 72 | 1010.8 |
| 20260505085404 | 10 | 245 | 0.0 | 1.6 | 0.00 | 0.00 | 0.00 | 72 | 1011.2 |
| 20260505084504 | 10 | 244 | 0.0 | 1.6 | 0.00 | 0.00 | 0.00 | 71 | 1011.2 |
| 20260505083604 | 10 | 240 | 0.0 | 3.2 | 0.00 | 0.00 | 0.00 | 70 | 1010.8 |
| 20260505082704 | 10 | 245 | 0.0 | 1.6 | 0.00 | 0.00 | 0.00 | 71 | 1011.2 |
| 20260505081804 | 10 | 235 | 0.0 | 1.6 | 0.00 | 0.00 | 0.00 | 70 | 1011.2 |
| 20260505080904 | 10 | 212 | 0.0 | 1.6 | 0.00 | 0.00 | 0.00 | 70 | 1010.8 |
| 20260505080004 | 10 | 231 | 0.0 | 1.6 | 0.00 | 0.00 | 0.00 | 70 | 1011.2 |
| 20260505075404 | 10 | 252 | 0.0 | 1.6 | 0.00 | 0.00 | 0.00 | 70 | 1011.2 |
| 20260505074525 | 10 | 247 | 0.0 | 3.2 | 0.00 | 0.00 | 0.00 | 70 | 1011.2 |
| 20260505073604 | 10 | 251 | 0.0 | 1.6 | 0.00 | 0.00 | 0.00 | 70 | 1011.2 |
| 20260505072704 | 10 | 262 | 0.0 | 1.6 | 0.00 | 0.00 | 0.00 | 71 | 1011.2 |
| 20260505071825 | 10 | 262 | 0.0 | 1.6 | 0.00 | 0.00 | 0.00 | 71 | 1011.2 |
| 20260505070904 | 10 | 262 | 0.0 | 1.6 | 0.00 | 0.00 | 0.00 | 71 | 1011.2 |
| 20260505070004 | 10 | 262 | 0.0 | 1.6 | 0.00 | 0.00 | 0.00 | 72 | 1011.5 |
| 20260505065425 | 10 | 262 | 0.0 | 1.6 | 0.00 | 0.00 | 0.00 | 72 | 1011.2 |
| 20260505064504 | 10 | 262 | 0.0 | 1.6 | 0.00 | 0.00 | 0.00 | 73 | 1011.2 |
| 20260505063625 | 10 | 0 | 0.0 | 0.0 | 0.00 | 0.00 | 0.00 | 73 | 1011.2 |
| 20260505062704 | 10 | 0 | 0.0 | 0.0 | 0.00 | 0.00 | 0.00 | 72 | 1011.5 |
| 20260505061804 | 10 | 261 | 0.0 | 1.6 | 0.00 | 0.00 | 0.00 | 72 | 1011.2 |
| 20260505060903 | 10 | 261 | 0.0 | 1.6 | 0.00 | 0.00 | 0.00 | 72 | 1011.5 |
| 20260505060004 | 10 | 0 | 0.0 | 0.0 | 0.00 | 0.00 | 0.00 | 72 | 1011.5 |
| 20260505055404 | 10 | 0 | 0.0 | 0.0 | 0.00 | 0.00 | 0.00 | 71 | 1011.5 |
| 20260505054504 | 10 | 0 | 0.0 | 0.0 | 0.00 | 0.00 | 0.00 | 70 | 1011.5 |
| 20260505053604 | 10 | 0 | 0.0 | 0.0 | 0.00 | 0.00 | 0.00 | 71 | 1011.5 |
| 20260505052703 | 10 | 0 | 0.0 | 0.0 | 0.00 | 0.00 | 0.00 | 70 | 1011.5 |
| 20260505051824 | 10 | 261 | 0.0 | 1.6 | 0.00 | 0.00 | 0.00 | 71 | 1011.9 |
| 20260505050924 | 10 | 261 | 0.0 | 1.6 | 0.00 | 0.00 | 0.00 | 70 | 1011.9 |
| 20260505040904 | 11 | 256 | 0.0 | 1.6 | 0.00 | 0.00 | 0.00 | 65 | 1011.9 |
| 20260505040004 | 11 | 256 | 0.0 | 1.6 | 0.00 | 0.00 | 0.00 | 65 | 1012.2 |
| 20260505035404 | 11 | 256 | 0.0 | 1.6 | 0.00 | 0.00 | 0.00 | 65 | 1012.2 |
| 20260505034503 | 11 | 256 | 0.0 | 1.6 | 0.00 | 0.00 | 0.00 | 65 | 1012.2 |
| 20260505033603 | 11 | 257 | 0.0 | 1.6 | 0.00 | 0.00 | 0.00 | 64 | 1011.9 |
| 20260505032704 | 11 | 257 | 0.0 | 1.6 | 0.00 | 0.00 | 0.00 | 63 | 1011.9 |
| 20260505031804 | 11 | 257 | 0.0 | 1.6 | 0.00 | 0.00 | 0.00 | 63 | 1012.2 |
| 20260505030903 | 11 | 257 | 0.0 | 1.6 | 0.00 | 0.00 | 0.00 | 63 | 1012.2 |
| 20260505030004 | 11 | 257 | 0.0 | 1.6 | 0.00 | 0.00 | 0.00 | 62 | 1012.2 |
| 20260505025404 | 12 | 258 | 0.0 | 1.6 | 0.00 | 0.00 | 0.00 | 61 | 1011.9 |
| 20260505024525 | 12 | 246 | 0.0 | 1.6 | 0.00 | 0.00 | 0.00 | 60 | 1011.9 |
| 20260505023604 | 12 | 237 | 0.0 | 1.6 | 0.00 | 0.00 | 0.00 | 59 | 1012.2 |
| 20260505022703 | 12 | 236 | 0.0 | 1.6 | 0.00 | 0.00 | 0.00 | 58 | 1012.2 |
| 20260505021804 | 12 | 228 | 0.0 | 1.6 | 0.00 | 0.00 | 0.00 | 57 | 1012.2 |
| 20260505020925 | 12 | 242 | 0.0 | 1.6 | 0.00 | 0.00 | 0.00 | 56 | 1012.2 |
| 20260505020003 | 12 | 246 | 0.0 | 3.2 | 0.00 | 0.00 | 0.00 | 56 | 1011.9 |
| 20260505015404 | 12 | 257 | 0.0 | 1.6 | 0.00 | 0.00 | 0.00 | 56 | 1011.9 |
| 20260505014503 | 13 | 262 | 0.0 | 3.2 | 0.00 | 0.00 | 0.00 | 54 | 1011.9 |
| 20260505013603 | 13 | 263 | 0.0 | 3.2 | 0.00 | 0.00 | 0.00 | 53 | 1011.9 |
| 20260505012704 | 13 | 274 | 0.0 | 1.6 | 0.00 | 0.00 | 0.00 | 52 | 1011.9 |
| 20260505011803 | 13 | 271 | 0.0 | 1.6 | 0.00 | 0.00 | 0.00 | 51 | 1011.5 |
| 20260505010903 | 13 | 258 | 0.0 | 3.2 | 0.00 | 0.00 | 0.00 | 51 | 1011.9 |
| 20260505010004 | 13 | 253 | 0.0 | 1.6 | 0.00 | 0.00 | 0.00 | 51 | 1011.5 |
| 20260505005404 | 14 | 218 | 0.0 | 1.6 | 0.00 | 0.00 | 0.00 | 50 | 1011.5 |
| 20260505004503 | 14 | 239 | 0.0 | 3.2 | 0.00 | 0.00 | 0.00 | 49 | 1011.2 |
| 20260505003625 | 15 | 253 | 0.0 | 4.8 | 0.00 | 0.00 | 0.00 | 48 | 1011.2 |
| 20260505002704 | 15 | 239 | 0.0 | 3.2 | 0.00 | 0.00 | 0.00 | 48 | 1011.2 |
| 20260505001803 | 15 | 188 | 0.0 | 1.6 | 0.00 | 0.00 | 0.00 | 47 | 1010.8 |
| 20260505000903 | 16 | 259 | 0.0 | 3.2 | 0.00 | 0.00 | 0.00 | 45 | 1010.5 |
| 20260505000004 | 16 | 123 | 0.0 | 3.2 | 0.00 | 0.00 | 0.00 | 45 | 1010.5 |
| 20260504235403 | 16 | 150 | 1.6 | 6.4 | 0.00 | 0.00 | 0.00 | 44 | 1010.5 |
| 20260504234503 | 16 | 190 | 1.6 | 6.4 | 0.00 | 0.00 | 0.00 | 45 | 1010.5 |
| 20260504233603 | 16 | 147 | 1.6 | 6.4 | 0.00 | 0.00 | 0.00 | 45 | 1010.1 |
| 20260504232703 | 16 | 321 | 1.6 | 4.8 | 0.00 | 0.00 | 0.00 | 43 | 1010.1 |
| 20260504231803 | 17 | 111 | 1.6 | 9.7 | 0.00 | 0.00 | 0.00 | 44 | 1010.1 |
| 20260504230903 | 17 | 206 | 1.6 | 11.3 | 0.00 | 0.00 | 0.00 | 41 | 1009.8 |
| 20260504230003 | 18 | 229 | 1.6 | 12.9 | 0.00 | 0.00 | 0.00 | 40 | 1009.4 |
| 20260504225403 | 18 | 199 | 1.6 | 12.9 | 0.00 | 0.00 | 0.00 | 38 | 1009.4 |
| 20260504224503 | 19 | 151 | 3.2 | 11.3 | 0.00 | 0.00 | 0.00 | 35 | 1009.4 |
| 20260504223603 | 20 | 238 | 1.6 | 6.4 | 0.00 | 0.00 | 0.00 | 32 | 1009.4 |
| 20260504222703 | 20 | 193 | 1.6 | 14.5 | 0.00 | 0.00 | 0.00 | 32 | 1009.4 |
| 20260504221803 | 20 | 230 | 1.6 | 4.8 | 0.00 | 0.00 | 0.00 | 32 | 1009.4 |
| 20260504220903 | 20 | 237 | 1.6 | 6.4 | 0.00 | 0.00 | 0.00 | 31 | 1009.4 |
| 20260504220003 | 20 | 196 | 1.6 | 11.3 | 0.00 | 0.00 | 0.00 | 31 | 1009.4 |
| 20260504215403 | 20 | 248 | 1.6 | 11.3 | 0.00 | 0.00 | 0.00 | 30 | 1009.4 |
| 20260504214503 | 20 | 221 | 1.6 | 6.4 | 0.00 | 0.00 | 0.00 | 30 | 1009.4 |
| 20260504213624 | 20 | 246 | 1.6 | 6.4 | 0.00 | 0.00 | 0.00 | 30 | 1009.4 |
| 20260504212703 | 20 | 218 | 1.6 | 9.7 | 0.00 | 0.00 | 0.00 | 30 | 1009.8 |
| 20260504211824 | 20 | 237 | 3.2 | 9.7 | 0.00 | 0.00 | 0.00 | 29 | 1009.4 |
| 20260504210924 | 20 | 239 | 3.2 | 6.4 | 0.00 | 0.00 | 0.00 | 31 | 1009.8 |
| 20260504210003 | 20 | 242 | 1.6 | 6.4 | 0.00 | 0.00 | 0.00 | 30 | 1009.4 |
| 20260504205403 | 20 | 229 | 3.2 | 6.4 | 0.00 | 0.00 | 0.00 | 30 | 1009.8 |
| 20260504204503 | 20 | 236 | 1.6 | 6.4 | 0.00 | 0.00 | 0.00 | 30 | 1009.4 |
| 20260504203603 | 21 | 234 | 3.2 | 12.9 | 0.00 | 0.00 | 0.00 | 29 | 1009.8 |
| 20260504202703 | 20 | 251 | 1.6 | 12.9 | 0.00 | 0.00 | 0.00 | 29 | 1009.8 |
| 20260504201803 | 20 | 239 | 1.6 | 11.3 | 0.00 | 0.00 | 0.00 | 31 | 1009.4 |
| 20260504200903 | 20 | 240 | 3.2 | 11.3 | 0.00 | 0.00 | 0.00 | 30 | 1009.8 |
| 20260504200004 | 20 | 265 | 3.2 | 11.3 | 0.00 | 0.00 | 0.00 | 29 | 1010.1 |
| 20260504195426 | 20 | 265 | 3.2 | 12.9 | 0.00 | 0.00 | 0.00 | 30 | 1010.1 |
| 20260504194505 | 21 | 258 | 3.2 | 12.9 | 0.00 | 0.00 | 0.00 | 30 | 1010.1 |
| 20260504193604 | 21 | 237 | 3.2 | 9.7 | 0.00 | 0.00 | 0.00 | 31 | 1010.1 |
| 20260504192726 | 21 | 247 | 3.2 | 12.9 | 0.00 | 0.00 | 0.00 | 30 | 1010.1 |
| 20260504191805 | 21 | 242 | 3.2 | 12.9 | 0.00 | 0.00 | 0.00 | 31 | 1010.1 |
| 20260504190905 | 21 | 242 | 3.2 | 12.9 | 0.00 | 0.00 | 0.00 | 31 | 1010.1 |
| 20260504190004 | 21 | 235 | 4.8 | 17.7 | 0.00 | 0.00 | 0.00 | 31 | 1010.1 |
| 20260504185405 | 21 | 242 | 4.8 | 14.5 | 0.00 | 0.00 | 0.00 | 31 | 1010.1 |
| 20260504184505 | 20 | 249 | 3.2 | 11.3 | 0.00 | 0.00 | 0.00 | 31 | 1010.1 |
| 20260504183605 | 20 | 252 | 4.8 | 16.1 | 0.00 | 0.00 | 0.00 | 32 | 1010.5 |
| 20260504182705 | 20 | 246 | 3.2 | 6.4 | 0.00 | 0.00 | 0.00 | 32 | 1010.5 |
| 20260504181805 | 20 | 229 | 3.2 | 11.3 | 0.00 | 0.00 | 0.00 | 32 | 1010.5 |
| 20260504180905 | 20 | 291 | 4.8 | 17.7 | 0.00 | 0.00 | 0.00 | 31 | 1010.5 |
| 20260504180026 | 20 | 242 | 3.2 | 9.7 | 0.00 | 0.00 | 0.00 | 32 | 1010.5 |
| 20260504175404 | 20 | 248 | 3.2 | 17.7 | 0.00 | 0.00 | 0.00 | 31 | 1010.5 |
| 20260504174504 | 20 | 252 | 3.2 | 12.9 | 0.00 | 0.00 | 0.00 | 32 | 1010.5 |
| 20260504173604 | 20 | 265 | 3.2 | 20.9 | 0.00 | 0.00 | 0.00 | 31 | 1010.5 |
| 20260504172704 | 20 | 260 | 4.8 | 14.5 | 0.00 | 0.00 | 0.00 | 30 | 1010.8 |
| 20260504171805 | 20 | 231 | 3.2 | 11.3 | 0.00 | 0.00 | 0.00 | 32 | 1010.8 |
| 20260504170925 | 20 | 211 | 3.2 | 16.1 | 0.00 | 0.00 | 0.00 | 32 | 1010.8 |
| 20260504150904 | 16 | 242 | 3.2 | 11.3 | 0.00 | 0.00 | 0.00 | 33 | 1011.9 |
| 20260504140926 | 15 | 230 | 4.8 | 12.9 | 0.00 | 0.00 | 0.00 | 36 | 1012.6 |